SL-14 R/B

Satellite information

Favourite Embed

Satellite Type and Status

ROCKET BODYIN ORBIT

Key statistics

Satellite SL-14 R/B at a glance.

Uptime

11016

Days in orbit

Revolutions

≈ 14.8

Per day

Orbit

LEO

Low Earth Orbit

Inclination

82.5

Latest

Satellite identification and parameters

Extended collection of information and parameters for SL-14 R/B.

Object identification

Identified? True

Debris? False

Object name: SL-14 R/B

International designator: 1995-046C

Object number (NORAD): 23659

Object ID (CCSDS): 23659

Country: COMMONWEALTH OF INDEPENDENT STATES (CIS)

Current information (Y/N): Y

RCS size: LARGE

Orbital parameters

Period: 97.286 minutes

Inclination: 82.5312 deg

SMA: 7006.93 km

Apoapsis: 645.45 km

Periapsis: 612.14 km

RAAN: 349.3377 deg

Eccentricy: 0.00237697

Argument of periapsis: 318.8918 deg

Mean anomaly: 201.6907 deg

Mean motion: 14.8016827 rev/day

Mean motion (dot): 0.00000534 rev/day2

B* drag term: 0.000066987783 1/REarth

Two-line elements (TLE)

Creation date: Oct. 28, 2025, 2:18 a.m.

Reference frame: TEME

Reference center: EARTH

Epoch: Oct. 27, 2025, 2:33 p.m. UTC

TLE line 0: 0 SL-14 R/B

TLE line 1: 1 23659U 95046C 25300.60676866 .00000534 00000-0 66988-4 0 9997

TLE line 2: 2 23659 82.5312 349.3377 0023770 318.8918 201.6907 14.80168270625602

Live tracking on map

Real-time ground track for satellite SL-14 R/B.

In-orbit conjunctions

A list of the most updated potential collisions computed for object SL-14 R/B.

Target Orbit TCA Probability of collision Miss distance Type
CZ-6A DEB SSO 2025-01-05 19:36:58 0.0001476945 213.0 (m) DEBRIS
CZ-6A DEB SSO 2024-07-26 01:25:09 0.0002188589 191.0 (m) DEBRIS

Associated space launch

Ocean observation satellite

SL-14 R/B was lifted into orbit during the mission ‘Tsiklon-3 | Okean-O1 8’, on board a Tsiklon-3 space rocket.

The launch took place on Aug. 31, 1995, 6:49 a.m. from 32/2.

For more information about the launch, click the button.

Launch to space Tsiklon-3 | Okean-O1 8
Tsiklon-3 | Okean-O1 8

Agency: N/A

Status: Launch Successful

Launch date: Aug. 31, 1995, 6:49 a.m. UTC

Rocket: Tsiklon-3

Launch pad: 32/2

Location: Plesetsk Cosmodrome, Russian Federation

...

Latest news about this satellite

There are no fresh news available about this satellite. Check back as we update our databases every day.


Newsletter sign-up

Weekly statistics, charts and insights to help you stay on top of the space industry.